�N����,����,�~����,�C��,���x,�C��,����,���ϕ���,�ő�u�ԕ���,�ő厞����,���˗�,�I�_���x,�n�����x,�ő啗���N��,DTYPE
"21/07/23","00:10",0.0,24.0,81.8,1006.4,316.8,1.1,1.3,297.4,0.00,20.7,26.9,"00:03:36",1
"21/07/23","00:20",0.0,23.9,82.4,1006.4,276.0,0.7,1.6,265.3,0.00,20.8,26.8,"00:18:48",1
"21/07/23","00:30",0.0,23.9,82.5,1006.2,292.3,0.6,1.6,273.2,0.00,20.8,26.8,"00:20:08",1
"21/07/23","00:40",0.0,24.0,82.7,1006.0,320.0,1.1,1.8,343.4,0.00,20.9,26.6,"00:37:28",1
"21/07/23","00:50",0.0,23.7,82.9,1006.2,320.8,0.7,1.3,332.8,0.00,20.7,26.8,"00:40:16",1
"21/07/23","01:00",0.0,23.4,83.3,1006.2,294.7,0.6,1.6,315.6,0.00,20.4,26.7,"00:58:00",1
"21/07/23","01:10",0.0,23.4,83.8,1006.2,306.6,0.6,1.1,323.6,0.00,20.5,26.4,"01:04:40",1
"21/07/23","01:20",0.0,23.3,84.1,1006.2,304.9,0.7,1.2,309.8,0.00,20.5,26.4,"01:17:44",1
"21/07/23","01:30",0.0,23.2,84.4,1006.0,318.6,0.8,1.2,314.5,0.00,20.5,26.7,"01:21:12",1
"21/07/23","01:40",0.0,23.2,84.9,1006.0,318.7,1.3,1.7,327.4,0.00,20.6,26.5,"01:38:32",1
"21/07/23","01:50",0.0,23.3,85.2,1006.2,322.7,1.0,1.4,311.9,0.00,20.7,26.3,"01:41:04",1
"21/07/23","02:00",0.0,23.0,85.5,1006.0,305.0,0.8,1.2,324.6,0.00,20.5,26.2,"01:50:48",1
"21/07/23","02:10",0.0,23.0,86.0,1006.2,331.9,1.1,1.7,338.1,0.00,20.6,26.2,"02:04:00",1
"21/07/23","02:20",0.0,23.0,86.2,1005.7,320.1,1.0,1.4,322.6,0.00,20.6,26.3,"02:13:20",1
"21/07/23","02:30",0.0,22.7,86.5,1005.7,299.7,0.6,1.2,310.7,0.00,20.4,26.4,"02:27:44",1
"21/07/23","02:40",0.0,22.7,86.9,1005.7,298.5,1.0,1.4,325.4,0.00,20.4,26.2,"02:35:20",1
"21/07/23","02:50",0.0,22.7,87.3,1006.2,333.0,1.1,1.6,338.5,0.00,20.5,26.0,"02:41:20",1
"21/07/23","03:00",0.0,22.7,87.6,1005.7,311.6,1.0,1.4,337.7,0.00,20.6,26.3,"02:58:08",1
"21/07/23","03:10",0.0,22.5,87.9,1006.2,311.6,1.1,1.7,300.0,0.00,20.4,26.2,"03:04:56",1
"21/07/23","03:20",0.0,22.5,88.3,1006.0,311.8,1.0,1.4,332.4,0.00,20.5,26.2,"03:16:56",1
"21/07/23","03:30",0.0,22.6,88.5,1006.0,299.0,1.1,1.6,317.9,0.00,20.6,26.2,"03:26:48",1
"21/07/23","03:40",0.0,22.6,88.7,1006.0,298.6,1.1,1.9,311.4,0.00,20.7,26.2,"03:37:28",1
"21/07/23","03:50",0.0,22.6,88.8,1006.2,300.9,1.2,1.9,329.0,0.00,20.7,26.1,"03:40:16",1
"21/07/23","04:00",0.0,22.5,88.9,1006.0,303.3,0.8,1.2,316.2,0.00,20.6,26.0,"03:53:36",1
"21/07/23","04:10",0.0,22.4,89.0,1005.7,304.2,1.1,1.6,332.8,0.00,20.5,26.0,"04:09:40",1
"21/07/23","04:20",0.0,22.4,89.0,1006.0,322.4,1.1,1.4,324.9,0.00,20.5,25.9,"04:10:16",1
"21/07/23","04:30",0.0,22.2,89.1,1006.0,330.8,1.1,1.3,333.0,0.00,20.4,25.7,"04:20:48",1
"21/07/23","04:40",0.0,22.0,89.2,1006.0,309.7,1.0,1.3,325.3,0.00,20.2,25.6,"04:39:52",1
"21/07/23","04:50",0.0,22.0,89.4,1006.0,293.7,1.0,1.3,278.8,0.00,20.2,25.8,"04:49:52",1
"21/07/23","05:00",0.0,22.0,89.5,1006.0,309.8,1.2,1.6,298.7,0.00,20.2,25.7,"04:58:24",1
"21/07/23","05:10",0.0,22.0,89.6,1006.2,315.6,1.1,1.9,304.2,0.00,20.3,25.7,"05:08:16",1
"21/07/23","05:20",0.0,22.0,89.7,1006.4,301.4,0.7,1.6,313.4,0.00,20.3,25.8,"05:10:32",1
"21/07/23","05:30",0.0,22.1,89.8,1006.4,314.2,1.3,2.0,340.4,0.00,20.4,25.7,"05:24:48",1
"21/07/23","05:40",0.0,22.2,89.9,1006.0,302.3,1.1,1.3,298.6,0.00,20.5,25.7,"05:35:04",1
"21/07/23","05:50",0.0,22.3,89.9,1006.4,314.2,0.8,1.4,322.4,0.00,20.6,25.5,"05:46:40",1
"21/07/23","06:00",0.0,22.5,89.9,1006.4,297.3,1.0,1.4,327.3,0.00,20.8,25.5,"05:50:56",1
"21/07/23","06:10",0.0,22.7,89.8,1006.2,318.2,1.1,1.7,326.1,0.00,21.0,25.7,"06:06:40",1
"21/07/23","06:20",0.0,23.1,89.7,1006.4,312.2,0.7,1.2,328.3,0.02,21.4,25.6,"06:10:16",1
"21/07/23","06:30",0.0,23.9,89.7,1006.4,321.2,0.5,1.0,258.5,0.03,22.1,25.7,"06:23:12",1
"21/07/23","06:40",0.0,24.8,89.1,1006.4,339.9,0.6,1.2,325.2,0.05,22.9,25.4,"06:34:24",1
"21/07/23","06:50",0.0,25.5,88.1,1006.7,349.5,0.6,1.1,9.3,0.07,23.4,25.4,"06:47:52",1
"21/07/23","07:00",0.0,25.7,86.1,1006.2,335.8,0.6,1.0,348.3,0.09,23.2,25.4,"06:56:56",1
"21/07/23","07:10",0.0,26.8,84.3,1006.2,347.3,0.2,1.0,354.5,0.11,24.0,25.4,"07:08:56",1
"21/07/23","07:20",0.0,27.8,81.5,1006.4,3.6,0.3,1.0,29.4,0.13,24.4,25.5,"07:15:52",1
"21/07/23","07:30",0.0,28.2,77.0,1005.5,10.2,0.5,1.6,349.9,0.15,23.8,25.4,"07:28:08",1
"21/07/23","07:40",0.0,28.7,72.7,1005.7,1.7,0.5,1.0,6.1,0.17,23.4,25.5,"07:35:28",1
"21/07/23","07:50",0.0,29.5,69.7,1006.4,39.3,0.5,1.6,345.4,0.20,23.4,25.5,"07:49:52",1
"21/07/23","08:00",0.0,29.6,68.6,1006.4,359.0,0.6,1.3,24.5,0.22,23.3,25.5,"07:56:00",1
"21/07/23","08:10",0.0,30.0,68.3,1006.4,120.8,0.8,2.0,144.9,0.24,23.6,25.5,"08:01:12",1
"21/07/23","08:20",0.0,30.2,65.9,1006.7,102.7,0.8,1.8,99.9,0.27,23.2,25.4,"08:11:36",1
"21/07/23","08:30",0.0,30.6,64.9,1006.7,106.5,1.0,3.4,120.4,0.28,23.3,25.7,"08:26:08",1
"21/07/23","08:40",0.0,30.6,64.9,1006.9,156.4,1.0,2.8,135.0,0.31,23.3,25.5,"08:34:16",1
"21/07/23","08:50",0.0,30.9,63.5,1007.1,118.0,0.8,2.0,82.7,0.33,23.2,25.5,"08:41:36",1
"21/07/23","09:00",0.0,30.8,62.5,1007.1,122.4,1.2,3.2,165.6,0.35,22.8,25.6,"08:52:24",1
"21/07/23","09:10",0.0,31.0,61.0,1007.4,175.2,1.1,3.2,194.7,0.38,22.6,25.8,"09:09:12",1
"21/07/23","09:20",0.0,31.1,61.9,1007.4,169.5,1.6,4.0,217.2,0.40,23.0,25.7,"09:19:20",1
"21/07/23","09:30",0.0,31.5,61.2,1007.1,151.7,1.6,2.6,187.4,0.42,23.2,25.7,"09:20:08",1
"21/07/23","09:40",0.0,31.5,60.7,1007.4,176.7,1.5,3.4,213.1,0.44,23.0,25.8,"09:36:40",1
"21/07/23","09:50",0.0,31.6,61.0,1007.4,177.5,1.7,4.0,211.4,0.46,23.2,25.9,"09:45:12",1
"21/07/23","10:00",0.0,31.8,58.8,1007.4,210.1,1.0,2.4,236.3,0.47,22.8,26.0,"09:51:20",1
"21/07/23","10:10",0.0,32.4,58.9,1007.8,131.7,1.1,2.9,122.7,0.48,23.4,26.2,"10:00:02",1
"21/07/23","10:20",0.0,32.1,56.4,1007.6,179.8,1.6,3.7,206.1,0.50,22.4,26.4,"10:16:24",1
"21/07/23","10:30",0.0,32.7,55.7,1007.8,154.8,0.8,2.1,88.5,0.48,22.7,26.2,"10:25:52",1
"21/07/23","10:40",0.0,33.3,53.8,1007.8,299.6,0.5,1.3,333.4,0.50,22.7,26.5,"10:36:32",1
"21/07/23","10:50",0.0,33.0,55.1,1007.6,222.5,1.2,3.6,230.2,0.52,22.8,26.5,"10:42:08",1
"21/07/23","11:00",0.0,33.7,55.8,1007.8,112.6,1.0,2.6,19.4,0.50,23.7,26.6,"10:54:40",1
"21/07/23","11:10",0.0,32.7,56.0,1007.4,200.1,1.7,4.1,150.5,0.38,22.8,26.6,"11:00:48",1
"21/07/23","11:20",0.0,33.0,54.2,1007.4,188.7,1.7,2.7,164.6,0.47,22.6,26.7,"11:12:00",1
"21/07/23","11:30",0.0,32.7,55.6,1006.9,325.1,0.8,2.4,182.7,0.29,22.7,26.8,"11:20:02",1
"21/07/23","11:40",0.0,33.2,56.0,1006.7,153.7,1.5,2.7,127.6,0.38,23.3,26.8,"11:31:44",1
"21/07/23","11:50",0.0,32.8,55.6,1006.9,143.9,0.6,2.6,133.3,0.19,22.8,26.9,"11:40:08",1
"21/07/23","12:00",0.0,32.5,55.4,1006.4,346.0,0.8,2.1,350.7,0.20,22.5,26.8,"11:53:36",1
"21/07/23","12:10",0.0,33.0,56.0,1006.0,108.0,0.8,2.5,124.0,0.34,23.1,26.8,"12:08:32",1
"21/07/23","12:20",0.0,33.7,54.3,1006.0,144.0,1.0,2.5,209.0,0.35,23.2,26.9,"12:13:28",1
"21/07/23","12:30",0.0,34.0,54.4,1006.4,158.5,0.7,1.4,214.6,0.39,23.5,26.9,"12:26:24",1
"21/07/23","12:40",0.0,34.0,51.3,1006.7,58.6,0.8,2.4,14.0,0.21,22.6,27.0,"12:37:12",1
"21/07/23","12:50",0.0,33.3,54.7,1006.2,185.9,0.5,1.3,201.5,0.12,23.0,27.0,"12:42:56",1
"21/07/23","13:00",0.0,33.5,53.6,1006.0,52.3,0.7,2.0,128.5,0.29,22.8,27.0,"12:50:24",1
"21/07/23","13:10",0.0,34.5,50.4,1006.0,81.9,0.8,2.2,30.9,0.36,22.7,27.2,"13:03:12",1
"21/07/23","13:20",0.0,35.3,49.4,1006.2,57.4,1.0,2.0,135.2,0.53,23.1,27.1,"13:12:56",1
"21/07/23","13:30",0.0,34.5,50.1,1006.2,128.2,1.0,2.0,155.0,0.25,22.6,27.2,"13:22:08",1
"21/07/23","13:40",0.0,34.1,52.2,1005.5,163.7,1.2,2.6,186.1,0.34,22.9,27.2,"13:34:16",1
"21/07/23","13:50",0.0,34.5,52.3,1005.7,127.6,1.1,2.5,93.4,0.40,23.3,27.4,"13:47:12",1
"21/07/23","14:00",0.0,35.1,53.1,1005.7,134.9,1.3,3.2,117.8,0.52,24.2,27.2,"13:59:28",1
"21/07/23","14:10",0.0,35.1,53.1,1005.7,147.3,1.5,3.9,123.7,0.56,24.2,27.6,"14:05:20",1
"21/07/23","14:20",0.0,35.6,50.2,1006.0,133.3,1.2,2.2,189.1,0.54,23.7,27.4,"14:16:56",1
"21/07/23","14:30",0.0,36.2,49.1,1006.0,125.1,0.6,1.7,19.2,0.47,23.9,27.4,"14:20:02",1
"21/07/23","14:40",0.0,35.9,47.1,1006.0,41.2,1.0,2.2,28.3,0.33,22.9,27.6,"14:34:16",1
"21/07/23","14:50",0.0,34.3,50.8,1005.5,137.7,0.8,1.9,147.0,0.13,22.7,27.6,"14:49:28",1
"21/07/23","15:00",0.0,34.6,53.7,1005.2,130.2,1.2,2.8,128.6,0.38,23.9,27.7,"14:52:32",1
"21/07/23","15:10",0.0,35.5,47.1,1005.0,155.8,1.5,4.4,226.1,0.50,22.5,27.6,"15:08:24",1
"21/07/23","15:20",0.0,36.6,46.9,1005.5,105.1,0.8,2.1,121.2,0.47,23.5,27.7,"15:14:32",1
"21/07/23","15:30",0.0,35.4,47.1,1005.0,109.4,0.7,2.0,103.1,0.15,22.4,27.7,"15:23:04",1
"21/07/23","15:40",0.0,34.2,50.0,1004.5,58.8,1.0,2.0,15.0,0.07,22.3,27.7,"15:31:44",1
"21/07/23","15:50",0.0,35.3,50.2,1004.5,106.0,0.8,2.1,128.5,0.36,23.4,27.8,"15:49:28",1
"21/07/23","16:00",0.0,36.2,47.0,1004.5,94.6,0.7,1.7,144.3,0.36,23.1,27.8,"15:50:48",1
"21/07/23","16:10",0.0,36.6,45.5,1004.8,251.6,0.7,2.0,39.8,0.31,23.0,27.7,"16:05:52",1
"21/07/23","16:20",0.0,36.4,46.2,1005.0,111.9,0.7,1.7,18.4,0.30,23.0,27.8,"16:12:00",1
"21/07/23","16:30",0.0,36.0,46.6,1004.5,189.7,0.7,2.0,234.7,0.26,22.8,28.1,"16:20:02",1
"21/07/23","16:40",0.0,36.0,47.0,1004.8,127.3,0.7,2.1,243.1,0.23,22.9,28.0,"16:30:16",1
"21/07/23","16:50",0.0,36.0,46.6,1004.5,72.1,0.8,2.1,117.2,0.22,22.8,27.8,"16:44:40",1
"21/07/23","17:00",0.0,35.6,45.7,1004.8,35.6,0.8,2.1,42.0,0.15,22.1,27.9,"16:53:20",1
"21/07/23","17:10",0.0,34.9,47.7,1004.3,96.0,0.8,1.6,142.3,0.10,22.2,28.2,"17:04:16",1
"21/07/23","17:20",0.0,34.6,47.0,1004.3,65.7,0.8,1.7,343.0,0.07,21.7,28.0,"17:11:52",1
"21/07/23","17:30",0.0,35.0,47.7,1003.6,88.9,0.8,2.4,50.8,0.12,22.3,28.2,"17:22:24",1
"21/07/23","17:40",0.0,35.1,47.3,1004.1,114.5,0.8,2.6,127.2,0.04,22.2,28.1,"17:38:56",1
"21/07/23","17:50",0.0,34.7,49.4,1004.1,132.3,1.0,2.2,155.8,0.03,22.6,28.2,"17:44:48",1
"21/07/23","18:00",0.0,33.9,50.4,1003.8,131.5,0.7,2.0,132.0,0.03,22.2,28.0,"17:50:16",1
"21/07/23","18:10",0.0,33.8,51.4,1003.6,138.1,0.7,1.8,158.2,0.03,22.4,28.1,"18:03:36",1
"21/07/23","18:20",0.0,33.5,52.7,1003.4,143.5,1.2,2.5,148.1,0.01,22.6,28.0,"18:17:04",1
"21/07/23","18:30",0.0,33.1,51.7,1003.1,137.1,0.8,2.2,162.7,0.00,21.9,28.2,"18:20:40",1
"21/07/23","18:40",0.0,32.8,54.3,1003.6,128.0,1.3,2.9,145.7,0.00,22.4,28.2,"18:36:32",1
"21/07/23","18:50",0.0,32.3,56.8,1003.4,181.7,1.2,3.2,197.4,0.00,22.7,28.2,"18:42:48",1
"21/07/23","19:00",0.0,31.9,58.3,1003.1,155.2,1.2,3.5,135.8,0.00,22.7,28.0,"18:57:28",1
"21/07/23","19:10",0.0,31.5,59.3,1002.6,157.7,1.7,3.1,132.2,0.00,22.6,28.0,"19:01:04",1
"21/07/23","19:20",0.0,31.0,61.2,1002.9,151.5,1.3,2.7,134.3,0.00,22.7,28.0,"19:19:52",1
"21/07/23","19:30",0.0,30.7,62.4,1002.4,145.4,1.1,2.4,148.4,0.00,22.7,27.9,"19:28:32",1
"21/07/23","19:40",0.0,30.4,63.6,1002.4,142.9,1.0,2.2,118.2,0.00,22.8,28.0,"19:33:44",1
"21/07/23","19:50",0.0,30.1,64.7,1002.4,255.3,0.6,1.3,139.7,0.00,22.8,27.9,"19:41:20",1
"21/07/23","20:00",0.0,29.8,65.9,1002.6,323.8,1.2,2.8,349.9,0.00,22.8,27.9,"19:59:04",1
"21/07/23","20:10",0.0,29.4,67.2,1002.2,338.9,1.0,2.4,349.8,0.00,22.7,27.7,"20:02:24",1
"21/07/23","20:20",0.0,29.0,68.8,1002.9,344.5,1.3,2.4,329.1,0.00,22.7,27.9,"20:15:04",1
"21/07/23","20:30",0.0,28.6,71.2,1002.6,345.6,1.1,1.9,354.2,0.00,22.9,27.6,"20:20:08",1
"21/07/23","20:40",0.0,28.4,72.4,1003.4,10.7,1.0,2.4,28.5,0.00,23.0,27.7,"20:30:48",1
"21/07/23","20:50",0.0,28.4,72.4,1003.6,159.0,0.8,1.9,186.1,0.00,23.0,27.8,"20:45:04",1
"21/07/23","21:00",0.0,28.3,72.6,1003.8,238.7,0.6,2.2,219.0,0.00,22.9,27.6,"20:53:12",1
"21/07/23","21:10",0.0,27.8,73.6,1004.1,346.5,0.6,1.3,345.9,0.00,22.7,27.7,"21:03:04",1
"21/07/23","21:20",0.0,27.5,74.7,1003.8,318.4,0.6,1.1,352.6,0.00,22.6,27.7,"21:10:16",1
"21/07/23","21:30",0.0,27.0,76.2,1004.1,315.8,0.5,0.9,6.4,0.00,22.5,27.4,"21:28:16",1
"21/07/23","21:40",0.0,26.8,77.9,1004.3,306.7,0.7,1.2,328.9,0.00,22.7,27.7,"21:39:52",1
"21/07/23","21:50",0.0,26.8,78.7,1004.3,311.4,0.8,1.7,338.9,0.00,22.8,27.6,"21:40:32",1
"21/07/23","22:00",0.0,26.8,79.2,1004.3,295.3,0.7,1.6,334.1,0.00,22.9,27.5,"21:58:32",1
"21/07/23","22:10",0.0,26.8,79.4,1004.5,330.6,0.6,1.4,329.9,0.00,23.0,27.4,"22:00:24",1
"21/07/23","22:20",0.0,27.0,79.9,1004.5,348.8,1.0,1.4,0.2,0.00,23.3,27.3,"22:10:24",1
"21/07/23","22:30",0.0,26.8,80.7,1004.8,335.9,1.0,1.8,345.9,0.00,23.2,27.3,"22:24:08",1
"21/07/23","22:40",0.0,26.7,81.4,1005.0,315.2,0.8,1.6,314.6,0.00,23.3,27.2,"22:38:00",1
"21/07/23","22:50",0.0,26.5,81.7,1005.0,272.6,0.5,1.6,243.1,0.00,23.2,27.3,"22:48:48",1
"21/07/23","23:00",0.0,26.6,81.8,1005.2,75.7,0.6,1.9,122.8,0.00,23.3,27.2,"22:59:36",1
"21/07/23","23:10",0.0,26.9,81.3,1005.2,210.3,0.8,2.4,149.7,0.00,23.5,27.2,"23:03:04",1
"21/07/23","23:20",0.0,26.6,81.2,1005.0,340.4,1.0,1.9,331.6,0.00,23.2,27.0,"23:11:36",1
"21/07/23","23:30",0.0,26.1,82.0,1005.0,335.4,1.0,1.4,346.8,0.00,22.8,27.4,"23:24:16",1
"21/07/23","23:40",0.0,25.9,82.7,1004.5,298.6,0.8,1.6,269.5,0.00,22.8,27.0,"23:35:36",1
"21/07/23","23:50",0.0,25.6,83.2,1004.5,316.0,0.7,1.4,315.3,0.00,22.6,27.2,"23:40:02",1
"21/07/23","24:00",0.0,25.5,83.7,1004.5,331.9,0.8,1.6,331.1,0.00,22.6,27.1,"23:58:24",1
